Other Public Products
Issued by NWS Charleston, SC

Current Version | Previous Version | Text Only | Print | Product List | Glossary Off
Versions: 1 2 3 4 5 6 7 8 9 10 11 12 13 14 15 16 17 18 19 20 21 22 23 24 25 26 27 28 29 30 31 32 33 34 35 36 37 38 39 40 41 42 43 44 45 46 47 48 49 50

000
FPUS82 KCHS 230627
OPUCHS

TEST...KCHS/KSAV Gateway Observations...TEST
National Weather Service Charleston SC
200 AM EDT SAT SEP 23 2017

NOTE: "fair" indicates few or no clouds below 12,000 feet with no
significant weather and/or obstructions to visibility.

SCZ050-WAZ558-NCZ071-TXZ119-213-PAZ071-DCZ001-FLZ074-172-MI076-
NYZ176-178-MAZ016-IL014-TNZ027-NJZ106-GAZ044-MD014-230700-

...Gateway Observations for Charleston International...

CITY           SKY/WX    TMP DP  RH WIND       PRES   REMARKS
Chas Airport   PTCLDY    70  70 100 N5        29.99F
6HR MIN TEMP:  70; 6HR MAX TEMP:  77;

Seattle        CLOUDY    58  48  69 S3        30.04S
6HR MIN TEMP:  58; 6HR MAX TEMP:  67;

Charlotte      PTCLDY    71  66  84 CALM      30.05S
6HR MIN TEMP:  66; 6HR MAX TEMP:  84;

Dallas DFW     CLEAR     79  68  69 SE8       29.92S
6HR MIN TEMP:  79; 6HR MAX TEMP:  90;

Dallas Love    CLEAR     81  67  62 SE12      29.93S
6HR MIN TEMP:  81; 6HR MAX TEMP:  90;

Philladelphia  PTCLDY    71  53  52 N5        30.01S
6HR MIN TEMP:  70; 6HR MAX TEMP:  78;

Wash National  MOCLDY    69  62  78 N7        30.03R
6HR MIN TEMP:  69; 6HR MAX TEMP:  80;

Baltimore      MOCLDY    64  59  83 W3        30.01S
6HR MIN TEMP:  62; 6HR MAX TEMP:  74;

Miami          CLOUDY    79  77  94 CALM      29.83F
6HR MIN TEMP:  78; 6HR MAX TEMP:  83; 6HR PCP:  0.09;

Detroit        CLEAR     70  66  87 CALM      30.10S
6HR MIN TEMP:  69; 6HR MAX TEMP:  79;

Newark         PTCLDY    72  54  53 N9        29.99S
6HR MIN TEMP:  72; 6HR MAX TEMP:  78;

Laguardia      MOCLDY    72  58  61 N12       29.98S
6HR MIN TEMP:  72; 6HR MAX TEMP:  77;

J F K          PTCLDY    71  57  61 N16G24    29.98S
6HR MIN TEMP:  71; 6HR MAX TEMP:  77;

Boston Logan   DRIZZLE   62  61  96 N16       29.99S
6HR MIN TEMP:  60; 6HR MAX TEMP:  62; 6HR PCP: TRACE;

Ft. Lauderdale CLOUDY    79  78  97 E7        29.82F
6HR MIN TEMP:  75; 6HR MAX TEMP:  81; 6HR PCP:  0.54;

Chicago O`Hare CLEAR     79  67  66 S3        30.04R
6HR MIN TEMP:  77; 6HR MAX TEMP:  87;

Chicago Midway CLEAR     81  67  62 S7        30.04S
6HR MIN TEMP:  81; 6HR MAX TEMP:  91;

Houston Bush   NOT AVBL
Houston Hobby  NOT AVBL
Nashville      CLEAR     71  68  90 CALM      30.03S
6HR MIN TEMP:  71; 6HR MAX TEMP:  84;

Atlanta        PTCLDY    73  68  84 CALM      30.04S
6HR MIN TEMP:  73; 6HR MAX TEMP:  82;


$$

GAZ044-118-TXZ119-213-NCZ071-DCZ001-MDZ014-506-PAZ021-071-NJZ106-
NYZ176-178-MAZ106-OHZ011-021-055-MIZ076-KYZ091-ILZ014-INZ047-
MNZ060-ONZ431-230700-

...Gateway Observations for Savannah International...

CITY           SKY/WX    TMP DP  RH WIND       PRES   REMARKS
Savannah Arpt  CLEAR     71  70  96 N6        29.99F FOG
6HR MIN TEMP:  71; 6HR MAX TEMP:  79;

Atlanta        PTCLDY    73  68  84 CALM      30.04S
6HR MIN TEMP:  73; 6HR MAX TEMP:  82;

Charlotte      PTCLDY    71  66  84 CALM      30.05S
6HR MIN TEMP:  66; 6HR MAX TEMP:  84;

Dallas DFW     CLEAR     79  68  69 SE8       29.92S
6HR MIN TEMP:  79; 6HR MAX TEMP:  90;

Houston Bush   NOT AVBL
Wash National  MOCLDY    69  62  78 N7        30.03R
6HR MIN TEMP:  69; 6HR MAX TEMP:  80;

Wash Dulles    MOCLDY    61  61 100 CALM      30.04S
6HR MIN TEMP:  61; 6HR MAX TEMP:  72;

Baltimore      MOCLDY    64  59  83 W3        30.01S
6HR MIN TEMP:  62; 6HR MAX TEMP:  74;

Philadelphia   PTCLDY    71  53  52 N5        30.01S
6HR MIN TEMP:  70; 6HR MAX TEMP:  78;

Newark         PTCLDY    72  54  53 N9        29.99S
6HR MIN TEMP:  72; 6HR MAX TEMP:  78;

Laguardia      MOCLDY    72  58  61 N12       29.98S
6HR MIN TEMP:  72; 6HR MAX TEMP:  77;

J F K          PTCLDY    71  57  61 N16G24    29.98S
6HR MIN TEMP:  71; 6HR MAX TEMP:  77;

Boston         DRIZZLE   62  61  96 N16       29.99S
6HR MIN TEMP:  60; 6HR MAX TEMP:  62; 6HR PCP: TRACE;

Pittsburg      PTCLDY    63  57  81 NW3       30.10S
6HR MIN TEMP:  62; 6HR MAX TEMP:  80;

Akron          MOCLDY    65  58  78 NE5       30.11S
6HR MIN TEMP:  65; 6HR MAX TEMP:  76;

Cleveland      CLEAR     67  60  78 CALM      30.10F
6HR MIN TEMP:  66; 6HR MAX TEMP:  80;

Cincinnati     CLEAR     66  66 100 S3        30.08S
6HR MIN TEMP:  66; 6HR MAX TEMP:  80;

Columbus       CLEAR     67  65  94 CALM      30.08S
Detroit        CLEAR     70  66  87 CALM      30.10S
6HR MIN TEMP:  69; 6HR MAX TEMP:  79;

Chicago O`Hare CLEAR     79  67  66 S3        30.04R
6HR MIN TEMP:  77; 6HR MAX TEMP:  87;

Minneapolis    MOCLDY    82  69  64 S8        29.86S
6HR MIN TEMP:  81; 6HR MAX TEMP:  89;

Indianapolis   CLEAR     74  67  78 SE5       30.06S
6HR MIN TEMP:  74; 6HR MAX TEMP:  81;

Toronto Canada CLEAR     68  54  60 SW2       30.08F

$$




USA.gov is the U.S. government's official web portal to all federal, state and local government web resources and services.